Terminal Aerodrome Forecast
Issued by NWS Chicago, IL

Home | Current Version | Previous Version | Graphics & Text | Print | Product List | Glossary On
Versions: 1 2 3 4 5 6 7 8 9 10 11 12 13 14 15 16 17 18 19 20 21 22 23 24 25 26
432
FTUS43 KLOT 241515 AAA
TAFRFD
TAF AMD
KRFD 241515Z 2415/2512 21010G16KT P6SM SCT200
     FM241830 25012G19KT P6SM VCTS BKN040CB
     FM242100 30007KT P6SM SCT025 BKN200
     FM250400 VRB03KT P6SM SCT200=

USA.gov is the U.S. government's official web portal to all federal, state and local government web resources and services.